This is the latest recevied weather packets stored in our database for station/object VR2OT-10. If no packets are shown the sender has not sent any weather packets the latest 10 day(s).
| Time | Temp. | Humidity | Pressure | Rain* | Wind** | Luminosity | Snow |
|---|---|---|---|---|---|---|---|
| 1778071637 | 23.33° C | 85% | 1012.2 hPa | - | 2.68 m/s, 90° | - | - |
| 1778070739 | 23.33° C | 85% | 1012.1 hPa | - | 3.13 m/s, 90° | - | - |
| 1778069838 | 23.33° C | 85% | 1012 hPa | - | 3.13 m/s, 90° | - | - |
| 1778068939 | 23.33° C | 85% | 1011.8 hPa | - | 3.13 m/s, 90° | - | - |
| 1778068038 | 23.33° C | 86% | 1011.8 hPa | - | 3.13 m/s, 90° | - | - |
| 1778067137 | 23.33° C | 85% | 1011.8 hPa | - | 3.13 m/s, 90° | - | - |
| 1778066237 | 23.33° C | 85% | 1011.8 hPa | - | 3.13 m/s, 90° | - | - |
| 1778065339 | 23.33° C | 84% | 1011.6 hPa | - | 3.58 m/s, 90° | - | - |
| 1778064438 | 23.33° C | 85% | 1011.5 hPa | - | 3.58 m/s, 90° | - | - |
| 1778063539 | 23.33° C | 84% | 1011.3 hPa | - | 4.02 m/s, 90° | - | - |
| 1778062638 | 23.33° C | 84% | 1011.3 hPa | - | 3.13 m/s, 90° | - | - |
| 1778061737 | 23.33° C | 84% | 1011.3 hPa | - | 3.13 m/s, 90° | - | - |
| 1778059038 | 23.33° C | 83% | 1011.3 hPa | - | 3.13 m/s, 135° | - | - |
| 1778058138 | 23.33° C | 83% | 1011.3 hPa | - | 3.13 m/s, 90° | - | - |
| 1778057238 | 23.33° C | 84% | 1011.3 hPa | - | 2.24 m/s, 135° | - | - |
| 1778056338 | 23.33° C | 83% | 1011.5 hPa | - | 4.02 m/s, 90° | - | - |
| 1778055438 | 22.78° C | 83% | 1011.5 hPa | - | 3.58 m/s, 90° | - | - |
| 1778054539 | 22.78° C | 84% | 1011.7 hPa | - | 3.13 m/s, 90° | - | - |
| 1778053637 | 22.78° C | 83% | 1011.8 hPa | - | 2.68 m/s, 90° | - | - |
| 1778052739 | 22.78° C | 84% | 1012 hPa | - | 3.58 m/s, 90° | - | - |
| 1778051838 | 22.78° C | 83% | 1012.1 hPa | - | 3.58 m/s, 90° | - | - |
| 1778050938 | 22.78° C | 82% | 1012.1 hPa | - | 4.02 m/s, 135° | - | - |
| 1778050038 | 22.78° C | 82% | 1012.2 hPa | - | 3.58 m/s, 90° | - | - |
| 1778049139 | 22.78° C | 83% | 1012.3 hPa | - | 3.58 m/s, 90° | - | - |
| 1778048238 | 22.78° C | 82% | 1012.3 hPa | - | 4.02 m/s, 90° | - | - |
* Rain since midnight (hover to see other rain measurements)
** Current wind speed in m/s (hover to see current wind gust speed)